Regional Weather Roundup
Issued by NWS

Home | Current Version | Previous Version | Graphics & Text | Print | Product List | Glossary On
Versions: 1 2 3 4 5 6 7 8 9 10 11 12 13 14 15 16 17 18 19 20 21 22 23 24 25 26 27 28 29 30 31 32 33 34 35 36 37 38 39 40 41 42 43 44 45 46 47 48 49 50
000
ASUS45 KCYS 250410
RWRWY

WYOMING REGIONAL WEATHER ROUNDUP
NATIONAL WEATHER SERVICE CHEYENNE WY
1000 PM MDT FRI APR 24 2015

NOTE:  "FAIR" INDICATES FEW OR NO CLOUDS BELOW 12,000 FEET
WITH NO SIGNIFICANT WEATHER AND/OR OBSTRUCTIONS TO VISIBILITY.

WYZ001-250500-
YELLOWSTONE NATIONAL PARK

CITY           SKY/WX    TMP DP  RH WIND       PRES   REMARKS
LK YELLOWSTONE   N/A     34  32  92 CALM      29.75S
W YELLOWSTONE  NOT AVBL

$$
WYZ002>013-054>058-071-098>099-250500-
NORTHERN WYOMING

CITY           SKY/WX    TMP DP  RH WIND       PRES   REMARKS
JACKSON        CLOUDY    39  37  93 S6        29.74R WCI  35
CODY           CLOUDY    52  37  58 SW12G18   29.63R
GREYBULL       CLOUDY    63  33  32 W21       29.54R
WORLAND        FAIR      57  31  37 NE6       29.54R
SHERIDAN       FAIR      48  38  68 CALM      29.60F
BUFFALO        MOCLDY    50  41  71 S10       29.66S
GILLETTE       CLOUDY    51  40  65 SE6       29.64R
HULETT         FAIR      52  34  50 CALM      29.66S
NEWCASTLE      FAIR      43  37  81 CALM      29.65S

$$
WYZ014>020-022>026-101>103-250500-
CENTRAL WYOMING

CITY           SKY/WX    TMP DP  RH WIND       PRES   REMARKS
BIG PINEY      MOCLDY    36  33  89 E7        29.75F WCI  30
PINEDALE       LGT RAIN  36  36 100 E5        29.78R WCI  32
DUBOIS         DRIZZLE   37  32  81 NW8       29.72S WCI  31
LANDER         FAIR      53  29  39 SW17G24   29.64R
RIVERTON       FAIR      51  32  48 W13       29.65R
CASPER         FAIR      50  33  52 S6        29.66R
DOUGLAS        FAIR      48  43  82 E3        29.66F

$$
WYZ021-027>030-104>119-250500-
SOUTHERN WYOMING

CITY           SKY/WX    TMP DP  RH WIND       PRES   REMARKS
EVANSTON       LGT RAIN  39  38  96 SW9       29.77R WCI  33
KEMMERER       CLOUDY    37  36  93 SW5       29.77S WCI  34
FORT BRIDGER   MOCLDY    39  37  93 W7        29.79R WCI  34
ROCK SPRINGS   FAIR      40  35  83 SW8       29.78R WCI  34
DIXON          FAIR      41  35  80 E5        29.81R
RAWLINS        FAIR      41  30  65 SW8       29.76R
SARATOGA       FAIR      37  32  81 SE6       29.78S WCI  33
LARAMIE        CLOUDY    40  33  76 SW7       29.76S
CHEYENNE       CLOUDY    47  35  63 W17       29.71S
TORRINGTON     FAIR      52  42  69 N8        29.64R
PINE BLUFFS    CLOUDY    45  39  81 W10       29.69R

$$


USA.gov is the U.S. government's official web portal to all federal, state and local government web resources and services.